Regional Weather Roundup
Issued by NWS New Orleans/Baton Rouge, LA

Home | Current Version | Previous Version | Graphics & Text | Print | Product List | Glossary On
Versions: 1 2 3 4 5 6 7 8 9 10 11 12 13 14 15 16 17 18 19 20 21 22 23 24 25 26 27 28 29 30 31 32 33 34 35 36 37 38 39 40 41 42 43 44 45 46 47 48 49 50
187
ASUS44 KLIX 290101
RWRLIX
NEW ORLEANS REGIONAL WEATHER ROUNDUP
NATIONAL WEATHER SERVICE NEW ORLEANS LA
800 PM CDT THU AUG 28 2014

NOTE: "FAIR" INDICATES FEW OR NO CLOUDS BELOW 12,000 FEET WITH NO
      SIGNIFICANT WEATHER AND/OR OBSTRUCTIONS TO VISIBILITY.
      SKY/WX - SKY CONDITION AND SIGNIFICANT WEATHER.
      TMP - AIR TEMPERATURE.     DP    - DEWPOINT TEMPERATURE.
      RH  - RELATIVE HUMIDITY.   PRES  - PRESSURE.
      HI  - HEAT INDEX.          WCI   - WIND CHILL INDEX.

*  THESE STATIONS ARE NOT NWS OR FAA STATIONS AND ARE NOT UNDER
   NWS QUALITY CONTROL.

LAZ038-040-048-061>063-065>067-069-290200-
SOUTHEAST LOUISIANA

CITY           SKY/WX    TMP DP  RH WIND       PRES   REMARKS
N.O. AUDUBON     N/A     85  73  67 MISG        N/A
N.O. INTL ARPT MOCLDY    84  71  65 SE8       29.93R
N.O. LAKEFRONT PTCLDY    84  72  67 SE7       29.93R
N.O. DOWNTOWN*   N/A     84  70  61 SE6       29.94R
SLIDELL        PTCLDY    81  74  79 SE3       29.93R
BATON ROUGE    CLOUDY    81  75  82 E5        29.92R
BOOTHVILLE     CLEAR     84  74  71 E7        29.93S
BELLE CHASSE   MOCLDY    83  72  69 E6        29.92R
BOGALUSA*      NOT AVBL
GALLIANO*      NOT AVBL
NEW ROADS*       N/A     82  74  77 E5        29.92R
GONZALES*        N/A     83  80  90 CALM      29.92R
HAMMOND*       NOT AVBL
HOUMA*         CLEAR     81  71  70 E5        29.92R
PORT FOURCHON* PTCLDY    86  72  62 E10G17    29.94R

$$

MSZ070-080>082-290200-
SOUTHERN MISSISSIPPI

CITY           SKY/WX    TMP DP  RH WIND       PRES   REMARKS
MCCOMB         MOCLDY    82  73  74 S3        29.94R
GULFPORT       PTCLDY    83  72  69 SE8       29.93S
BILOXI         PTCLDY    83  71  65 E2        29.93S
PASCAGOULA     PTCLDY    74  72  93 CALM      29.94R
STENNIS ARPT*  PTCLDY   N/A N/A N/A SE6       29.93R

$$

COASTAL OBSERVATIONS
LAKE AND NEARSHORE STATIONS

STATION/POSITION TIME  TEMP    WIND        PRES    WAVE
                       AIR SEA DIR/SP/G            HT/PER
                 (UTC) (F)     (DEG/KT/KT) (MB)    (FT/S)
PASCAGOULA       0000   84     140/  4/  5 1013.1
WAVELAND YACHT   0000   85     120/  9/ 11 1012.9
GRAND ISLE       0000   85 84  110/  7/ 12 1013.7
SOUTHWEST PASS   0000   86 90  100/ 16/ 19 1013.3
NEW CANAL        0000   86 85  140/  3/  6 1013.7
SHELL BEACH      0000   84 82  110/ 11/ 13 1013.1

OFFSHORE STATIONS

STATION/POSITION TIME  TEMP    WIND        PRES    WAVE
                       AIR SEA DIR/SP/G            HT/PER
                 (UTC) (F)     (DEG/KT/KT) (MB)    (FT/S)
64 S DAUPHIN ISL 0046   85 85   90/ 14/ 16 1013.7

$$




USA.gov is the U.S. government's official web portal to all federal, state and local government web resources and services.